Home > Weather > Aalborg > Past weeks

Flag for Denmark Past Weather in Aalborg, Denmark — Yesterday and Last 2 Weeks

Now
70 °F

Partly sunny.


Feels Like: 70 °F
Forecast: 59 / 69 °F
Wind: 2 mph from Northeast

Location: Aalborg Airport

Current Time: Jul 25, 2016 at 8:06:34 PM

Latest Report: Jul 25, 2016 at 7:20 PM


Visibility: N/A

Pressure: 29.95 "Hg

Humidity: 94%

Dew Point: 68 °F

Location of AalborgLocation

Past Weather in Aalborg — Graph

°F

Aalborg Temperature Yesterday

Maximum temperature yesterday: 81 °F (at 1:20 PM)
Minimum temperature yesterday: 61 °F (at 4:50 AM)
Average temperature yesterday: 72 °F

High & Low Weather Summary for the Past Weeks

 TemperatureHumidityPressure
High81 °F (Jul 20, 2:50 PM)100% (Jul 10, 11:20 PM)30.12 "Hg (Jul 10, 11:20 PM)
Low55 °F (Jul 13, 1:50 AM)39% (Jul 22, 6:20 PM)29.50 "Hg (Jul 11, 5:20 AM)
Average65 °F81%29.94 "Hg
* Reported Jul 10 7:20 PM — Jul 25 7:20 PM, Aalborg, Weather by CustomWeather, © 2016

Note: Actual official high and low records may vary slightly from our data, if they occured in-between our weather recording intervals... More about our weather records

Advertising

Aalborg Weather History for the Previous 24 Hours

Scroll right to see more
 ConditionsComfort  
Time TempWeatherWind HumidityBarometerVisibility
7:20 PM
Mon, Jul 25
70 °FPartly sunny.2 mph94%29.95 "HgN/A
6:20 PM72 °FRain showers. Partly sunny.1 mph83%29.98 "Hg4 mi
5:50 PM72 °FPartly sunny.5 mph83%29.98 "HgN/A
5:20 PM72 °FPartly sunny.3 mph78%29.98 "HgN/A
4:50 PM73 °FBroken clouds.1 mph74%29.98 "HgN/A
4:20 PM72 °FBroken clouds.6 mph78%29.98 "HgN/A
3:56 PM72 °FBroken clouds.8 mph83%29.98 "HgN/A
3:20 PM73 °FBroken clouds.7 mph74%29.98 "HgN/A
2:50 PM75 °FBroken clouds.6 mph65%30.01 "HgN/A
2:20 PM77 °FPartly sunny.5 mph65%30.01 "HgN/A
1:20 PM73 °FPartly sunny.7 mph69%30.01 "HgN/A
12:50 PM75 °FSprinkles. Partly sunny.7 mph65%30.01 "HgN/A
12:20 PM75 °FPartly sunny.10 mph65%30.01 "HgN/A
11:50 AM75 °FPartly sunny.9 mph61%30.01 "HgN/A
11:20 AM75 °FPartly sunny.8 mph65%30.01 "HgN/A
10:50 AM75 °FSunny.8 mph65%30.01 "Hg10 mi
10:20 AM75 °FSunny.9 mph65%30.01 "Hg10 mi
9:50 AM73 °FPassing clouds.8 mph74%30.01 "HgN/A
9:20 AM72 °FPassing clouds.5 mph73%30.01 "HgN/A
8:50 AM70 °FSunny.6 mph83%30.01 "Hg10 mi
8:20 AM68 °FSunny.7 mph83%30.01 "Hg10 mi
7:50 AM68 °FSunny.7 mph78%30.01 "Hg10 mi
7:20 AM66 °FSunny.7 mph83%30.01 "Hg10 mi
6:50 AM66 °FSunny.5 mph83%30.01 "Hg10 mi
6:20 AM66 °FSunny.6 mph83%30.04 "Hg10 mi
5:50 AM64 °FClear.6 mph83%30.04 "Hg10 mi
5:20 AM64 °FClear.6 mph78%30.04 "Hg10 mi
4:50 AM64 °FClear.7 mph83%30.04 "Hg10 mi
4:20 AM64 °FClear.6 mph83%30.04 "Hg10 mi
3:50 AM64 °FClear.7 mph83%30.04 "Hg10 mi
3:20 AM66 °FClear.8 mph78%30.04 "Hg10 mi
2:50 AM66 °FClear.8 mph78%30.04 "Hg10 mi
2:20 AM66 °FClear.7 mph78%30.04 "Hg10 mi
1:50 AM66 °FClear.7 mph78%30.07 "Hg10 mi
1:20 AM66 °FClear.7 mph78%30.07 "Hg10 mi
12:50 AM66 °FClear.8 mph83%30.07 "Hg10 mi
12:20 AM68 °FClear.7 mph78%30.07 "Hg10 mi
11:50 PM
Sun, Jul 24
68 °FClear.5 mph78%30.07 "Hg10 mi
11:20 PM68 °FClear.6 mph78%30.07 "Hg10 mi
10:50 PM68 °FClear.3 mph78%30.07 "Hg10 mi
10:20 PM70 °FSunny.3 mph73%30.07 "Hg10 mi
9:50 PM70 °FSunny.6 mph73%30.07 "Hg10 mi
9:20 PM73 °FPassing clouds.6 mph61%30.07 "HgN/A
8:50 PM73 °FSunny.6 mph61%30.07 "Hg10 mi
8:20 PM75 °FSunny.7 mph57%30.07 "Hg10 mi
Weather by CustomWeather, © 2016

See weather overviewHow to use our weather pages